Temp
61 61 61 61 61 61 62 61 61 61 61 61 61 61 61 61 62 57 50 59 62 67 64 58 59 58 58 55 58 57 47 43 48 50 55 61 56 60 63 61 63 62 61 66 65
61 61 61 61 61 61 61 61 61 61 61 61 61 61 61 61 53 51 63 67 67 66 55 52 52 54 49 50 53 49 44 47 53 54 52 56 54 57 57 58 57 60 64 65 64
60 60 60 60 60 60 61 60 60 60 61 61 61 61 61 57 49 50 66 66 66 62 56 54 54 52 46 48 47 46 42 49 54 54 53 53 53 57 57 53 60 57 60 61 63
59 59 59 59 60 60 60 60 60 60 60 60 61 61 61 52 38 54 65 65 65 60 55 52 49 44 42 40 46 40 47 47 50 52 51 50 55 52 56 58 64 60 62 60 61
59 58 58 59 59 60 60 60 60 60 60 60 61 61 55 45 45 60 63 60 58 56 51 48 45 42 37 40 43 40 43 48 49 50 50 52 50 51 53 58 63 63 62 60 61
58 58 58 58 59 59 59 60 60 60 60 60 61 61 50 39 58 58 57 56 56 52 50 50 46 47 41 40 38 42 43 43 46 47 47 46 47 49 52 57 58 59 60 58 59
58 57 57 58 58 59 59 60 60 60 60 60 61 56 48 45 55 56 57 54 54 52 48 51 51 46 43 39 44 43 37 41 41 45 45 48 42 43 49 52 51 53 55 60 60
57 57 57 57 58 58 59 59 59 60 60 61 61 49 42 56 54 56 54 53 54 55 52 54 52 47 43 45 42 37 35 29 41 43 45 44 33 47 50 49 49 49 49 57 60
57 57 57 57 58 58 59 59 59 60 61 61 50 46 42 59 51 54 52 50 51 52 52 57 51 43 42 33 30 32 26 28 33 43 41 40 35 44 51 49 48 50 50 50 57
57 57 57 57 58 58 58 59 59 57 56 57 54 44 48 45 50 53 54 52 48 48 47 45 40 34 33 31 21 28 28 30 30 37 40 36 36 44 47 47 47 48 50 50 50
57 57 57 57 58 58 51 47 44 44 46 40 41 42 47 51 52 52 52 49 47 43 34 38 33 30 32 33 35 33 30 29 34 40 34 34 36 40 45 45 44 46 47 49 51
56 57 57 57 58 56 47 40 40 42 38 45 46 46 49 48 42 48 52 42 40 33 36 33 31 36 39 38 35 32 30 30 34 39 37 36 34 39 42 41 42 43 44 46 49
56 56 56 57 57 49 43 42 48 46 37 42 45 44 45 47 41 44 48 42 35 32 31 29 35 40 37 34 32 32 31 30 31 36 37 32 30 34 40 41 44 44 45 45 45
56 56 56 56 50 45 41 48 48 46 26 36 40 44 46 44 39 50 50 42 38 32 32 31 38 36 33 32 34 28 36 35 32 29 22 33 20 32 35 38 39 41 41 42 44
56 56 56 55 45 42 45 48 47 43 18 37 39 50 45 40 40 44 48 43 32 32 32 32 32 32 31 34 36 31 37 33 32 28 28 27 24 27 35 34 37 39 42 42 44
55 56 55 49 44 44 47 45 43 28 20 28 36 35 36 38 39 40 41 43 40 33 32 31 37 34 34 38 37 38 34 32 30 30 15 27 24 28 31 33 36 41 41 42 43
55 55 50 48 41 45 44 40 26 23 30 25 29 33 32 31 34 33 32 30 27 18 20 28 31 35 38 32 35 34 24 9 11 10 14 30 26 30 35 37 39 39 42 42 42
55 51 48 46 44 44 40 30 22 15 14 31 30 31 28 30 31 30 30 25 31 25 18 16 16 30 35 32 29 29 23 19 13 10 19 33 23 32 39 40 40 42 42 42 41
53 42 41 43 45 41 33 18 22 18 24 26 28 16 15 28 27 28 24 25 30 30 16 17 19 32 34 35 33 25 17 33 24 23 20 24 30 38 39 40 41 40 40 39 40
42 40 39 43 43 38 26 27 21 32 32 30 20 16 11 11 22 22 21 29 30 33 31 25 17 30 32 35 35 29 35 21 19 14 11 21 25 28 31 35 37 36 36 38 40
41 35 42 43 41 31 21 19 24 34 35 29 17 14 14 13 18 13 18 29 32 31 32 28 23 23 29 28 26 22 20 27 27 25 18 16 23 33 35 38 36 33 37 38 38
38 29 42 43 28 18 18 22 36 33 35 32 30 25 18 16 12 17 20 27 34 32 22 30 21 15 22 32 32 31 25 27 20 20 24 22 23 39 42 40 38 36 36 35 36
33 30 42 42 24 15 20 31 34 33 32 32 30 31 27 17 14 16 24 33 33 31 25 27 14 11 16 26 30 27 32 30 27 25 20 18 22 44 42 37 37 34 33 32 33
37 28 32 35 30 27 19 25 27 35 33 33 32 32 26 18 25 16 26 31 33 32 39 36 23 12 11 22 25 23 27 29 25 20 22 25 26 34 33 32 33 33 31 31 31
38 33 31 27 28 29 32 30 28 26 33 33 30 31 26 14 17 14 23 27 31 34 31 29 11 13 19 22 23 23 23 25 23 25 23 27 27 31 31 31 31 30 30 29 29
34 33 30 27 31 31 33 28 29 27 30 29 27 31 29 20 25 17 21 24 25 28 27 29 10 21 15 23 24 22 27 28 29 29 29 30 28 35 34 33 30 28 28 27 27
39 39 38 34 30 30 30 32 32 33 32 33 31 29 27 30 29 29 30 30 29 25 26 26 16 12 7 20 21 15 28 30 30 32 30 25 28 32 30 30 28 27 27 26 27
MSLP
1022.96 1022.61 1022.41 1022.22 1022.02 1021.80 1021.30 1020.88 1020.65 1020.41 1020.08 1019.58 1019.33 1019.00 1018.69 1018.36 1017.90 1017.52 1017.54 1018.08 1017.31 1016.53 1015.88 1015.44 1014.92 1014.82 1014.49 1014.50 1014.28 1014.18 1014.50 1013.74 1012.87 1012.30 1011.32 1010.54 1010.39 1009.66 1009.19 1008.97 1008.40 1008.19 1008.25 1008.07 1008.21
1023.04 1022.71 1022.46 1022.25 1022.10 1021.90 1021.37 1020.97 1020.78 1020.49 1020.10 1019.57 1019.18 1018.92 1018.63 1018.37 1018.31 1018.10 1018.28 1017.74 1017.25 1016.74 1016.29 1016.05 1015.68 1015.35 1015.35 1015.22 1015.02 1014.90 1014.64 1013.84 1013.16 1012.74 1012.38 1011.69 1011.29 1010.70 1010.08 1009.46 1008.93 1008.63 1008.48 1008.50 1008.41
1023.03 1022.83 1022.56 1022.33 1022.08 1021.84 1021.45 1021.07 1020.78 1020.57 1020.09 1019.65 1019.20 1018.76 1018.42 1018.26 1018.47 1018.70 1018.04 1017.72 1017.32 1017.02 1016.66 1016.38 1016.10 1015.90 1016.01 1015.92 1016.14 1015.84 1015.42 1014.68 1013.78 1013.68 1013.39 1012.49 1011.79 1011.42 1010.67 1009.75 1009.18 1008.95 1008.81 1009.16 1009.09
1023.07 1022.86 1022.62 1022.38 1022.07 1021.76 1021.48 1021.12 1020.86 1020.53 1020.08 1019.57 1019.10 1018.66 1018.35 1018.45 1019.48 1019.00 1018.37 1017.96 1017.51 1017.26 1017.00 1016.90 1016.63 1016.92 1017.13 1017.22 1017.08 1016.83 1015.88 1015.81 1015.12 1014.42 1013.95 1013.21 1012.64 1011.78 1011.15 1010.22 1009.56 1009.26 1009.16 1009.03 1009.38
1023.02 1022.83 1022.61 1022.37 1022.04 1021.68 1021.42 1021.08 1020.82 1020.54 1020.13 1019.62 1019.19 1018.67 1018.49 1019.33 1019.71 1018.90 1018.52 1018.08 1017.72 1017.64 1017.75 1017.80 1017.89 1018.12 1018.18 1018.15 1017.72 1017.32 1016.96 1016.28 1015.56 1015.00 1014.32 1013.49 1012.82 1012.28 1010.93 1010.67 1009.88 1009.58 1009.27 1009.01 1009.08
1022.97 1022.77 1022.59 1022.28 1021.94 1021.58 1021.35 1021.04 1020.74 1020.54 1020.18 1019.82 1019.38 1018.97 1019.06 1019.82 1019.30 1019.05 1018.69 1018.32 1018.14 1018.02 1018.20 1018.21 1018.49 1018.52 1018.70 1018.57 1018.56 1018.08 1017.60 1016.83 1015.96 1015.51 1014.51 1013.88 1012.89 1012.39 1010.98 1010.39 1010.08 1009.79 1009.47 1009.18 1008.96
1022.91 1022.75 1022.51 1022.21 1021.93 1021.55 1021.29 1020.99 1020.67 1020.43 1020.16 1019.92 1019.64 1019.68 1019.67 1019.89 1019.39 1019.14 1018.86 1018.62 1018.20 1018.12 1018.14 1018.12 1018.34 1018.68 1018.87 1018.75 1018.55 1018.24 1018.05 1017.03 1016.40 1015.90 1015.09 1014.12 1012.41 1011.98 1011.66 1011.20 1010.69 1010.48 1010.20 1009.51 1009.00
1022.84 1022.71 1022.41 1022.17 1021.80 1021.35 1021.05 1020.72 1020.55 1020.30 1019.99 1019.81 1019.70 1019.84 1019.88 1019.49 1019.39 1019.27 1018.92 1018.21 1018.09 1017.89 1017.94 1017.92 1018.10 1018.59 1018.86 1018.66 1018.58 1018.71 1018.53 1018.31 1016.81 1016.44 1015.58 1015.22 1013.21 1012.64 1012.12 1011.83 1011.22 1010.64 1010.37 1009.71 1008.98
1022.80 1022.58 1022.40 1021.99 1021.62 1021.18 1020.74 1020.38 1020.31 1020.08 1019.96 1019.74 1019.84 1019.91 1020.18 1019.56 1019.74 1019.43 1019.22 1019.06 1018.38 1018.08 1018.03 1018.02 1018.25 1019.11 1019.20 1019.60 1019.70 1019.97 1019.94 1019.32 1018.01 1016.86 1016.35 1015.91 1013.70 1013.40 1012.65 1011.83 1011.03 1010.52 1009.96 1009.63 1009.00
1022.78 1022.53 1022.27 1021.90 1021.53 1020.99 1020.37 1020.18 1020.20 1020.04 1020.11 1019.97 1020.26 1020.84 1020.67 1021.16 1020.59 1019.88 1019.14 1019.04 1018.95 1018.77 1018.82 1018.96 1019.37 1020.00 1020.47 1020.71 1021.45 1021.14 1020.70 1019.87 1019.05 1017.31 1016.66 1015.97 1013.93 1013.12 1012.58 1011.74 1010.81 1010.03 1009.60 1009.17 1008.68
1022.68 1022.56 1022.20 1021.94 1021.54 1021.02 1020.50 1020.48 1021.30 1021.35 1021.52 1022.28 1022.21 1022.03 1021.79 1021.34 1020.69 1020.08 1019.58 1019.42 1019.60 1020.01 1020.73 1020.43 1020.82 1021.04 1021.23 1021.25 1021.32 1021.12 1020.86 1020.06 1018.75 1017.23 1016.84 1015.97 1014.15 1013.12 1011.28 1010.90 1010.48 1009.93 1009.46 1008.69 1008.35
1022.51 1022.39 1022.28 1022.01 1021.76 1021.24 1021.28 1022.63 1023.34 1023.66 1023.22 1022.59 1022.35 1022.20 1022.00 1022.00 1021.54 1020.59 1020.07 1020.44 1021.00 1021.64 1021.52 1021.37 1021.36 1021.06 1021.10 1021.13 1021.13 1020.85 1020.59 1019.56 1018.21 1017.20 1017.10 1015.42 1013.94 1012.40 1011.03 1010.61 1010.16 1009.83 1009.54 1009.06 1008.21
1022.47 1022.39 1022.18 1022.12 1021.82 1022.26 1022.66 1023.41 1023.49 1023.44 1023.47 1023.05 1022.78 1022.66 1022.54 1022.45 1022.23 1021.56 1021.22 1021.39 1021.91 1022.21 1022.51 1022.35 1021.41 1021.10 1021.14 1021.00 1020.91 1020.60 1020.22 1019.36 1018.54 1017.34 1016.63 1015.63 1013.94 1011.88 1010.79 1010.52 1010.24 1010.07 1009.95 1009.57 1009.01
1022.45 1022.49 1022.19 1022.03 1022.41 1023.09 1023.54 1023.36 1023.44 1023.41 1024.06 1024.00 1023.13 1022.87 1022.74 1022.62 1022.58 1021.92 1021.64 1022.07 1022.36 1022.84 1022.72 1022.38 1021.36 1021.45 1021.30 1021.13 1020.85 1020.22 1019.38 1019.23 1018.53 1018.33 1017.21 1016.56 1015.23 1012.03 1010.90 1010.38 1010.47 1010.38 1010.16 1009.93 1009.47
1022.34 1022.58 1022.37 1021.96 1022.95 1023.56 1023.96 1023.66 1023.40 1023.74 1024.95 1024.64 1023.68 1022.95 1023.03 1023.40 1023.51 1022.38 1022.20 1022.11 1022.88 1023.39 1023.64 1022.46 1021.91 1021.62 1021.37 1020.94 1020.83 1020.19 1019.60 1019.24 1018.47 1018.36 1017.95 1016.58 1016.24 1012.04 1011.18 1010.71 1010.77 1010.67 1010.46 1010.18 1009.95
1022.32 1022.49 1022.47 1022.84 1023.28 1023.72 1023.79 1023.91 1024.05 1024.77 1025.54 1025.26 1024.79 1024.53 1024.33 1024.39 1024.27 1023.92 1023.17 1022.98 1023.30 1023.68 1023.75 1023.20 1022.36 1021.97 1021.28 1020.82 1020.56 1020.36 1019.81 1018.72 1018.70 1018.60 1018.10 1016.54 1016.15 1012.04 1011.34 1011.13 1010.92 1010.68 1010.60 1010.28 1010.01
1022.44 1022.39 1022.82 1023.14 1023.80 1023.68 1023.74 1024.51 1025.62 1025.74 1026.93 1026.89 1026.34 1026.30 1026.36 1026.28 1025.65 1025.56 1025.09 1025.14 1025.57 1025.40 1025.38 1024.31 1022.81 1021.99 1021.48 1021.29 1020.78 1020.92 1020.92 1020.49 1020.21 1019.44 1018.02 1016.40 1015.64 1012.34 1011.26 1011.12 1011.24 1010.98 1010.33 1010.18 1009.99
1022.47 1022.72 1023.37 1023.76 1023.85 1023.74 1024.30 1025.21 1026.88 1027.54 1027.51 1027.43 1027.54 1027.57 1027.86 1027.86 1027.41 1026.96 1026.50 1026.70 1026.61 1026.84 1027.11 1026.84 1024.05 1022.89 1022.49 1022.37 1021.80 1021.75 1022.10 1022.48 1021.47 1020.06 1017.68 1015.71 1014.24 1011.42 1011.05 1011.26 1011.26 1011.08 1010.59 1010.28 1010.06
1022.45 1023.23 1023.50 1023.87 1024.15 1023.99 1024.58 1026.83 1027.33 1027.58 1027.52 1028.01 1028.49 1029.22 1029.53 1029.10 1028.96 1028.27 1027.82 1027.48 1027.05 1027.15 1027.77 1027.52 1025.81 1023.20 1022.65 1022.10 1022.06 1021.83 1022.09 1021.55 1021.18 1019.76 1018.36 1015.31 1013.07 1011.23 1011.14 1010.92 1010.62 1010.39 1010.37 1009.89 1009.35
1022.52 1023.61 1023.99 1023.65 1024.20 1024.43 1025.42 1027.14 1027.43 1027.19 1027.41 1027.99 1029.10 1030.35 1031.28 1030.63 1030.30 1029.53 1028.94 1027.82 1027.36 1027.42 1027.52 1027.97 1027.08 1024.15 1023.16 1022.18 1021.84 1021.97 1022.06 1021.86 1021.51 1020.49 1018.34 1015.08 1013.22 1011.97 1011.46 1011.20 1011.30 1011.19 1010.64 1009.90 1009.44
1022.64 1023.62 1023.80 1023.73 1024.23 1024.97 1026.94 1027.35 1027.19 1026.78 1026.88 1027.64 1028.89 1030.42 1031.19 1031.40 1031.38 1030.76 1029.67 1028.09 1027.37 1027.46 1027.61 1027.91 1028.25 1025.21 1024.00 1023.00 1022.74 1022.67 1022.34 1022.44 1022.13 1020.96 1019.12 1016.16 1013.00 1011.83 1011.68 1011.72 1011.42 1011.37 1010.94 1010.20 1009.57
1022.79 1023.88 1023.80 1023.75 1025.46 1026.88 1027.54 1026.95 1026.65 1026.60 1026.62 1027.27 1028.13 1029.36 1030.28 1031.06 1031.79 1031.06 1029.58 1028.03 1027.51 1027.49 1027.89 1028.13 1028.42 1027.35 1024.78 1023.12 1023.03 1023.07 1022.76 1022.81 1022.27 1021.06 1019.68 1017.82 1013.40 1011.78 1011.62 1011.66 1011.72 1011.48 1011.08 1010.75 1010.00
1022.75 1023.89 1023.87 1023.99 1025.64 1027.14 1027.20 1026.80 1026.38 1026.33 1026.47 1027.06 1027.67 1028.55 1029.75 1030.70 1031.58 1030.71 1029.32 1027.82 1027.52 1027.58 1027.75 1028.26 1028.89 1028.35 1025.46 1024.06 1023.40 1023.28 1022.80 1022.88 1022.62 1021.58 1019.37 1017.79 1013.81 1011.89 1011.92 1011.94 1012.00 1011.76 1011.53 1010.87 1010.05
1022.10 1023.75 1024.55 1024.70 1025.68 1025.84 1026.73 1026.56 1026.33 1025.87 1026.15 1026.52 1027.14 1028.15 1029.17 1030.21 1030.66 1030.28 1029.36 1028.24 1027.78 1027.67 1027.53 1028.12 1028.97 1029.36 1027.97 1025.67 1025.06 1024.13 1022.92 1022.42 1022.53 1021.25 1019.00 1017.09 1014.78 1012.79 1012.56 1012.39 1011.84 1011.89 1011.88 1011.27 1010.51
1021.07 1022.30 1022.80 1024.59 1025.18 1025.09 1025.13 1025.51 1025.78 1025.91 1026.08 1026.30 1027.02 1027.52 1028.44 1029.91 1030.17 1029.84 1029.44 1028.72 1028.14 1027.93 1028.08 1028.72 1029.26 1029.02 1027.87 1026.49 1025.44 1024.32 1023.16 1021.86 1021.66 1020.23 1019.10 1016.95 1015.70 1014.59 1014.17 1013.58 1013.26 1013.31 1012.59 1011.72 1010.82
1020.32 1021.37 1022.83 1023.40 1023.75 1024.26 1024.72 1024.81 1024.76 1025.52 1025.72 1026.17 1026.44 1026.53 1027.67 1028.50 1028.12 1028.80 1029.14 1029.10 1028.54 1028.55 1028.65 1029.23 1029.59 1029.20 1027.35 1025.82 1025.05 1023.71 1022.11 1021.16 1020.45 1019.42 1018.52 1017.54 1016.16 1015.67 1014.74 1014.24 1014.06 1013.80 1013.27 1012.63 1011.76
1019.67 1019.89 1020.27 1022.76 1023.38 1023.54 1023.50 1023.62 1023.69 1024.21 1025.12 1025.08 1025.57 1026.28 1027.12 1027.07 1027.54 1027.86 1028.26 1028.66 1028.66 1028.87 1029.06 1029.58 1030.04 1030.03 1028.64 1026.46 1024.71 1023.25 1020.96 1020.14 1019.56 1018.84 1018.74 1018.20 1017.52 1016.14 1015.03 1014.57 1014.78 1014.54 1014.18 1013.67 1012.89
Wind_Speed
8 9 10 12 12 13 14 16 17 18 18 18 17 15 12 12 8 9 11 10 13 18 16 9 5 7 3 3 2 1 2 5 7 7 7 7 7 5 6 5 5 2 2 4 9
8 9 11 11 12 13 13 15 16 17 18 18 17 14 12 8 1 10 10 19 18 18 8 8 8 8 3 3 4 1 3 5 2 4 5 8 4 8 5 7 4 4 5 2 12
9 10 10 11 11 13 13 14 16 17 18 18 16 16 14 0 4 6 16 20 18 14 6 2 4 1 3 4 6 5 4 7 5 8 11 8 9 6 7 6 7 4 6 3 8
8 9 10 10 11 12 13 14 16 17 17 17 17 17 7 3 4 6 17 18 14 10 8 7 7 5 4 3 5 4 3 4 7 10 9 9 7 8 10 10 9 6 8 5 9
8 10 10 10 11 12 13 14 16 17 16 16 16 17 5 7 2 7 15 13 6 6 7 6 9 4 3 4 7 2 6 11 10 12 10 12 12 12 15 12 16 12 7 9 11
9 9 10 10 11 12 13 14 15 15 14 13 16 12 7 7 5 7 9 9 5 4 5 5 3 2 1 2 1 4 6 11 8 9 7 7 10 5 4 7 11 8 8 8 9
8 9 10 11 11 12 13 16 15 13 11 11 12 4 6 2 3 7 8 5 2 2 2 1 1 5 2 3 0 5 5 7 1 5 6 11 8 6 6 8 9 7 8 11 10
8 9 10 10 11 12 14 15 15 12 10 10 10 1 2 4 4 6 7 7 2 3 1 4 1 1 2 5 6 5 4 6 8 8 6 4 9 12 9 13 15 10 6 7 11
7 8 10 10 12 14 16 14 12 8 9 6 3 3 4 6 7 9 4 6 8 4 3 1 3 3 6 4 5 7 6 6 9 8 5 4 16 7 21 17 17 15 13 8 10
7 7 8 10 13 15 14 4 5 5 5 1 2 4 7 6 7 9 6 4 3 6 6 8 6 4 5 7 3 9 8 6 13 7 12 15 23 15 15 20 20 18 14 11 10
6 7 7 9 13 16 6 4 7 7 11 4 1 1 5 9 4 7 5 6 5 8 6 5 6 3 5 2 4 7 6 12 14 15 6 11 24 22 25 18 17 17 16 16 13
5 5 6 8 11 13 5 7 2 2 4 2 2 3 3 3 5 9 7 8 7 5 8 6 1 1 5 3 6 7 7 11 9 7 13 16 24 25 18 10 8 10 10 11 15
4 4 5 8 5 7 6 4 1 2 4 4 3 3 5 5 4 8 8 5 5 6 4 2 4 6 5 8 5 5 9 7 16 17 12 8 9 13 9 4 5 5 4 6 10
3 3 5 7 5 1 3 2 1 1 7 7 4 4 4 4 3 4 5 3 6 5 6 5 3 4 5 4 1 8 7 9 17 12 10 6 9 13 5 8 3 6 7 9 11
3 1 5 6 5 3 1 2 0 3 5 2 6 4 7 5 5 6 5 4 2 4 1 6 6 8 4 3 2 10 12 13 17 14 8 3 4 11 4 3 6 7 8 8 11
4 1 2 4 3 2 1 2 3 8 5 3 3 7 4 6 7 8 7 7 1 3 3 6 5 3 4 4 6 7 13 13 3 1 3 3 3 10 4 3 5 9 9 8 13
5 5 4 2 2 1 2 4 7 7 3 5 2 5 1 5 6 8 6 8 6 8 7 9 5 4 2 6 4 11 6 6 8 5 6 2 5 11 3 1 5 13 16 12 13
8 5 5 2 1 2 3 7 5 2 6 1 2 2 3 6 3 7 3 4 5 4 2 5 13 2 2 3 4 5 3 1 7 4 13 11 8 7 3 3 6 10 12 14 14
9 2 2 2 3 2 7 6 9 8 4 5 3 7 6 3 1 5 4 1 2 4 4 5 8 6 9 4 5 5 1 3 7 3 5 3 8 5 5 14 21 22 21 23 21
4 3 1 3 2 4 7 5 4 4 5 3 5 4 2 4 2 4 2 3 2 2 2 1 10 4 7 6 1 4 4 4 2 6 7 6 6 7 8 19 20 20 20 21 19
4 4 2 4 2 6 4 7 4 4 3 3 5 4 4 1 1 2 4 3 1 1 2 1 4 9 6 2 2 6 4 2 3 4 5 8 5 4 9 22 22 19 20 23 21
3 2 2 2 5 2 3 6 4 4 2 2 4 4 5 5 2 3 4 5 3 2 1 1 3 6 8 12 5 4 3 1 2 4 5 5 9 5 17 17 22 21 16 19 19
5 2 2 3 4 2 3 1 4 4 3 5 3 2 3 5 1 4 3 2 2 1 3 2 4 8 11 6 4 2 3 5 6 6 9 5 8 17 22 21 22 19 19 19 18
5 3 3 3 1 7 5 4 3 2 3 3 4 3 4 2 3 3 2 2 3 1 4 3 3 8 7 9 5 11 14 17 6 5 6 11 19 26 24 28 26 20 20 18 16
2 4 4 4 5 4 4 7 5 5 2 4 1 5 6 3 2 3 2 4 1 4 3 3 4 4 11 20 17 18 19 18 10 12 6 13 22 23 24 23 15 16 16 17 17
8 6 1 2 4 8 3 8 11 4 8 5 5 8 7 6 8 8 5 3 4 1 2 2 5 5 8 4 0 15 14 13 14 14 11 13 21 21 24 19 13 17 16 16 16
0 1 5 5 4 5 6 7 10 10 5 3 7 6 7 12 5 3 5 3 3 6 1 2 1 5 8 10 14 4 4 4 5 11 6 9 20 21 24 21 13 18 15 15 15
Wind_Direction
13 8 0 358 355 348 352 351 346 346 345 343 347 346 340 342 336 23 43 344 340 337 335 318 351 348 24 342 318 111 238 240 239 227 258 320 358 327 300 271 322 296 209 303 128
357 353 359 356 351 344 349 349 343 342 341 340 341 341 334 335 22 41 354 350 349 348 352 351 344 350 19 349 341 180 247 243 258 324 322 326 319 328 313 303 305 320 337 304 144
346 360 357 351 347 343 346 346 342 340 341 340 341 338 337 321 64 331 342 348 348 353 326 274 308 15 40 7 6 326 236 334 327 348 350 307 314 334 286 267 237 246 290 223 191
358 350 349 346 344 347 345 345 341 338 341 341 341 342 341 19 67 285 334 341 347 350 7 12 8 31 48 7 350 343 322 30 309 331 319 301 296 284 249 258 289 317 305 178 224
351 345 344 338 340 345 342 342 339 335 338 340 343 346 38 37 45 295 329 336 354 6 25 17 34 14 34 337 336 223 339 318 306 295 284 278 266 261 267 288 285 293 283 217 217
347 348 344 339 338 342 340 339 339 334 335 341 345 350 69 66 273 330 336 333 355 20 2 37 30 272 310 311 351 293 288 284 287 309 294 299 295 265 341 288 277 286 271 250 226
343 338 336 339 334 342 337 333 334 330 331 335 344 1 60 112 4 318 324 290 267 288 326 358 37 49 301 319 282 275 318 318 169 317 295 342 305 220 323 7 335 328 323 307 254
337 335 339 330 331 340 335 330 323 315 321 326 330 30 87 323 309 331 319 321 318 319 278 319 11 12 24 296 357 343 47 8 316 323 297 26 275 307 326 327 306 295 276 284 302
327 327 329 335 337 338 331 324 314 313 310 320 24 66 347 330 358 309 346 314 310 346 36 291 56 56 4 18 14 15 312 303 315 318 281 25 296 288 310 296 293 292 285 250 271
319 322 328 343 342 340 334 352 350 26 347 9 52 38 14 312 299 309 306 329 2 345 13 32 40 49 25 37 338 305 307 292 295 281 303 300 284 292 285 279 278 282 277 267 233
321 322 340 350 353 352 17 26 22 353 39 76 338 47 314 302 294 312 331 356 17 48 14 340 51 9 325 313 264 263 269 287 283 280 297 273 289 297 282 285 278 277 278 278 259
314 320 338 354 3 12 65 70 129 200 78 10 359 339 288 334 340 324 16 43 38 16 342 13 2 15 327 307 303 296 284 283 281 284 312 300 298 283 294 274 268 274 289 292 293
305 311 345 343 27 32 72 87 317 164 92 1 11 343 319 4 331 301 18 358 54 17 9 183 269 354 15 322 325 293 280 277 291 311 283 305 295 284 283 288 340 9 353 347 352
279 301 348 333 58 172 40 332 345 180 77 315 348 351 340 337 311 289 348 42 6 339 338 246 272 352 325 262 186 297 253 288 295 318 307 59 304 293 301 317 352 349 351 346 348
206 303 38 65 141 61 157 315 150 52 49 273 310 303 329 59 317 333 327 24 353 299 45 267 317 345 321 264 350 259 306 285 288 292 303 336 245 269 300 298 341 336 334 332 341
168 183 82 33 58 106 358 7 36 46 268 351 332 354 14 11 350 319 5 20 269 353 283 263 296 227 239 294 278 300 324 312 17 268 312 218 178 282 309 8 326 332 330 334 335
140 98 65 62 155 38 87 52 33 116 333 297 340 11 75 343 344 14 16 16 34 17 355 327 296 302 349 324 330 12 360 338 353 2 234 160 283 253 264 346 354 338 334 334 331
136 75 37 62 335 118 68 51 79 234 230 313 3 17 60 1 13 342 34 30 28 69 17 17 332 9 49 204 274 316 128 253 306 299 295 277 231 261 149 21 318 328 326 329 325
120 36 65 3 334 79 79 55 200 201 182 160 57 65 317 351 2 9 15 348 74 47 105 355 270 310 296 243 125 289 333 222 264 253 275 260 287 296 29 354 349 343 332 330 328
108 86 329 343 333 64 74 226 170 193 148 106 142 134 205 285 9 46 345 272 94 85 139 294 290 250 289 323 108 149 313 341 347 308 294 264 267 255 360 344 339 327 321 324 319
70 83 265 354 74 48 159 212 209 227 144 122 175 131 216 206 191 271 242 282 46 42 30 87 203 294 345 226 22 341 350 11 276 246 286 312 269 182 348 341 332 325 319 322 317
122 88 309 56 57 57 146 181 197 152 139 111 114 119 168 155 199 252 246 213 29 124 104 209 229 279 267 286 259 225 196 12 251 315 267 261 275 205 333 335 333 328 326 319 314
121 128 339 88 156 266 300 174 184 142 183 167 143 162 159 160 4 221 257 286 315 153 132 222 311 312 339 3 24 10 291 277 311 264 244 264 279 312 322 330 332 329 331 326 319
120 112 343 60 175 139 144 208 192 203 154 155 134 130 96 52 216 259 256 294 360 276 303 180 230 193 217 257 336 297 293 296 279 267 282 271 297 314 333 331 335 341 332 328 326
109 208 187 186 244 174 145 143 140 174 213 170 123 198 160 174 297 238 256 298 45 358 71 85 245 214 249 264 273 268 275 286 291 269 271 296 303 319 326 325 327 332 332 336 338
142 150 29 121 140 120 196 210 170 193 159 218 203 183 170 185 188 202 158 209 226 24 125 78 274 307 290 287 28 287 272 259 265 286 276 299 314 331 320 326 351 347 346 347 345
321 54 102 153 162 124 205 196 191 145 227 201 180 131 200 240 190 194 187 173 185 154 226 249 280 352 272 320 312 349 254 250 275 270 292 334 313 319 325 332 8 351 357 353 356